Total_Precipitation_Accumulation
0.17 0.17 0.14 0.12 0.09 0.08 0.06 0.05 0.04 0.02 0.01 0.01 0.01 0.01 0.01 0.00 0.00 0.00 0.00 0.00 0.00 0.01 0.03 0.06 0.08 0.11 0.15 0.18 0.20 0.21 0.20 0.18 0.17 0.17 0.17 0.17 0.18 0.18 0.19 0.19 0.20 0.20 0.21
0.21 0.20 0.17 0.15 0.13 0.10 0.08 0.06 0.05 0.04 0.02 0.01 0.01 0.01 0.01 0.01 0.01 0.01 0.01 0.01 0.01 0.01 0.02 0.05 0.10 0.15 0.17 0.22 0.26 0.28 0.25 0.22 0.21 0.21 0.21 0.21 0.21 0.21 0.21 0.22 0.21 0.22 0.23
0.24 0.23 0.20 0.17 0.16 0.16 0.12 0.10 0.07 0.05 0.04 0.03 0.03 0.03 0.03 0.02 0.01 0.01 0.01 0.01 0.01 0.01 0.02 0.05 0.11 0.16 0.18 0.21 0.27 0.31 0.32 0.30 0.27 0.25 0.25 0.26 0.25 0.24 0.25 0.25 0.26 0.26 0.27
0.33 0.31 0.26 0.21 0.19 0.19 0.17 0.15 0.14 0.12 0.09 0.07 0.05 0.04 0.03 0.02 0.02 0.01 0.01 0.01 0.02 0.02 0.02 0.03 0.06 0.10 0.15 0.19 0.25 0.35 0.41 0.40 0.34 0.31 0.30 0.32 0.32 0.32 0.32 0.33 0.34 0.34 0.34
0.41 0.37 0.30 0.25 0.23 0.23 0.20 0.19 0.17 0.15 0.12 0.08 0.06 0.04 0.03 0.03 0.02 0.02 0.02 0.02 0.02 0.02 0.02 0.03 0.04 0.06 0.09 0.13 0.21 0.34 0.44 0.47 0.43 0.39 0.37 0.37 0.39 0.41 0.43 0.47 0.47 0.47 0.48
0.52 0.47 0.41 0.35 0.30 0.27 0.24 0.21 0.19 0.17 0.15 0.13 0.11 0.07 0.05 0.03 0.03 0.02 0.02 0.03 0.03 0.03 0.04 0.04 0.04 0.05 0.06 0.09 0.14 0.21 0.32 0.41 0.45 0.45 0.44 0.44 0.47 0.50 0.55 0.60 0.62 0.63 0.65
0.68 0.64 0.58 0.53 0.47 0.37 0.29 0.26 0.24 0.22 0.19 0.19 0.18 0.12 0.07 0.04 0.03 0.03 0.03 0.03 0.04 0.05 0.06 0.06 0.07 0.07 0.08 0.09 0.11 0.14 0.19 0.28 0.38 0.46 0.49 0.50 0.53 0.57 0.62 0.70 0.75 0.75 0.77
0.87 0.76 0.68 0.65 0.64 0.55 0.44 0.38 0.35 0.31 0.27 0.30 0.32 0.29 0.17 0.07 0.04 0.04 0.04 0.05 0.05 0.06 0.07 0.09 0.09 0.10 0.11 0.12 0.11 0.12 0.13 0.18 0.31 0.49 0.57 0.59 0.61 0.65 0.71 0.80 0.86 0.91 0.97
1.04 0.91 0.82 0.80 0.75 0.69 0.61 0.57 0.55 0.51 0.46 0.43 0.44 0.48 0.36 0.19 0.11 0.07 0.07 0.08 0.09 0.09 0.09 0.11 0.11 0.12 0.12 0.13 0.13 0.14 0.16 0.20 0.29 0.46 0.62 0.72 0.76 0.79 0.84 0.92 1.01 1.09 1.14
1.15 1.10 1.02 0.93 0.86 0.83 0.75 0.73 0.74 0.73 0.69 0.56 0.48 0.44 0.44 0.38 0.33 0.20 0.11 0.11 0.13 0.12 0.13 0.13 0.14 0.13 0.13 0.15 0.17 0.21 0.26 0.32 0.40 0.55 0.74 0.88 0.98 1.09 1.19 1.27 1.33 1.40 1.35
1.13 1.10 1.06 1.01 0.92 0.88 0.86 0.82 0.79 0.81 0.80 0.73 0.62 0.56 0.54 0.48 0.42 0.39 0.23 0.14 0.15 0.15 0.15 0.15 0.15 0.14 0.15 0.17 0.21 0.28 0.38 0.46 0.56 0.70 0.94 1.16 1.29 1.42 1.58 1.69 1.73 1.75 1.70
1.09 1.04 1.02 0.98 0.94 0.90 0.88 0.92 0.92 0.92 0.92 0.87 0.78 0.69 0.64 0.59 0.51 0.50 0.44 0.30 0.25 0.21 0.19 0.19 0.19 0.20 0.22 0.25 0.32 0.43 0.51 0.57 0.67 0.84 1.13 1.35 1.48 1.60 1.68 1.77 1.83 1.83 1.82
0.99 0.90 0.90 0.90 0.91 0.90 0.91 0.95 0.97 0.94 0.95 0.91 0.85 0.78 0.73 0.65 0.61 0.63 0.64 0.53 0.43 0.32 0.29 0.29 0.32 0.36 0.40 0.45 0.50 0.60 0.61 0.66 0.73 0.85 1.07 1.29 1.36 1.41 1.50 1.64 1.81 1.88 1.87
1.07 1.01 0.98 0.97 0.97 0.95 0.93 0.93 0.91 0.89 0.90 0.88 0.85 0.82 0.77 0.71 0.69 0.72 0.76 0.83 0.80 0.64 0.54 0.51 0.51 0.56 0.60 0.64 0.69 0.73 0.66 0.73 0.73 0.76 0.89 1.05 1.09 1.08 1.09 1.20 1.39 1.52 1.61
0.99 0.97 1.01 1.02 0.98 0.96 0.93 0.92 0.89 0.83 0.81 0.80 0.78 0.78 0.76 0.71 0.73 0.79 0.87 1.00 1.15 1.09 0.87 0.71 0.70 0.71 0.74 0.74 0.77 0.69 0.60 0.69 0.71 0.70 0.74 0.81 0.84 0.80 0.79 0.87 0.96 1.03 1.12
0.92 0.90 0.92 0.94 0.93 0.89 0.87 0.84 0.81 0.78 0.76 0.73 0.73 0.76 0.76 0.73 0.73 0.79 0.87 0.96 1.09 1.23 1.14 0.85 0.71 0.67 0.67 0.65 0.68 0.58 0.53 0.62 0.60 0.60 0.62 0.65 0.68 0.66 0.66 0.70 0.75 0.78 0.79
0.86 0.85 0.83 0.82 0.82 0.81 0.78 0.76 0.73 0.70 0.70 0.66 0.63 0.66 0.68 0.68 0.71 0.73 0.77 0.84 0.90 0.99 1.04 0.85 0.68 0.63 0.61 0.57 0.55 0.48 0.44 0.43 0.43 0.52 0.53 0.54 0.54 0.54 0.58 0.59 0.61 0.65 0.66
0.69 0.72 0.72 0.70 0.67 0.67 0.68 0.69 0.67 0.66 0.66 0.63 0.59 0.58 0.58 0.58 0.61 0.64 0.68 0.73 0.75 0.76 0.80 0.75 0.61 0.54 0.50 0.45 0.41 0.38 0.35 0.33 0.31 0.39 0.40 0.40 0.42 0.42 0.42 0.43 0.46 0.50 0.53
0.54 0.58 0.61 0.61 0.60 0.57 0.55 0.56 0.57 0.58 0.56 0.57 0.57 0.59 0.59 0.61 0.65 0.65 0.65 0.63 0.61 0.61 0.61 0.61 0.51 0.42 0.38 0.36 0.35 0.32 0.27 0.26 0.24 0.26 0.28 0.28 0.29 0.31 0.34 0.36 0.36 0.35 0.36
0.46 0.49 0.52 0.54 0.55 0.55 0.55 0.56 0.59 0.61 0.62 0.61 0.63 0.68 0.71 0.71 0.69 0.66 0.64 0.61 0.59 0.59 0.56 0.56 0.54 0.47 0.41 0.35 0.34 0.31 0.28 0.25 0.22 0.21 0.24 0.26 0.28 0.29 0.28 0.27 0.24 0.21 0.19
0.45 0.46 0.50 0.51 0.54 0.58 0.63 0.67 0.70 0.77 0.84 0.87 0.86 0.83 0.81 0.83 0.79 0.73 0.67 0.63 0.62 0.64 0.67 0.68 0.63 0.51 0.39 0.32 0.28 0.25 0.27 0.28 0.28 0.26 0.26 0.24 0.23 0.22 0.20 0.19 0.17 0.16 0.16
0.50 0.49 0.52 0.56 0.60 0.66 0.82 0.83 0.78 0.81 0.89 0.89 0.86 0.81 0.76 0.75 0.70 0.69 0.66 0.63 0.66 0.73 0.81 0.81 0.68 0.50 0.32 0.25 0.25 0.30 0.38 0.48 0.43 0.28 0.27 0.26 0.23 0.22 0.19 0.16 0.16 0.17 0.19
0.61 0.62 0.66 0.72 0.78 0.83 0.88 0.81 0.80 0.73 0.74 0.73 0.70 0.68 0.64 0.61 0.61 0.55 0.58 0.65 0.68 0.73 0.70 0.61 0.52 0.39 0.32 0.30 0.40 0.52 0.51 0.49 0.37 0.23 0.28 0.31 0.26 0.25 0.22 0.21 0.22 0.20 0.19
0.81 0.86 0.90 0.93 0.94 0.94 0.88 0.74 0.66 0.59 0.59 0.59 0.57 0.56 0.54 0.53 0.52 0.54 0.60 0.67 0.59 0.53 0.49 0.43 0.40 0.38 0.37 0.37 0.46 0.58 0.56 0.50 0.38 0.30 0.32 0.39 0.30 0.26 0.23 0.21 0.22 0.21 0.20
0.99 0.98 0.95 0.89 0.83 0.79 0.72 0.59 0.51 0.44 0.43 0.43 0.43 0.45 0.49 0.47 0.52 0.65 0.70 0.66 0.51 0.43 0.44 0.47 0.48 0.44 0.43 0.43 0.44 0.57 0.67 0.70 0.56 0.36 0.29 0.34 0.30 0.29 0.27 0.23 0.20 0.21 0.22
0.90 0.83 0.75 0.69 0.62 0.55 0.53 0.46 0.41 0.36 0.34 0.32 0.32 0.33 0.39 0.42 0.55 0.67 0.60 0.54 0.47 0.42 0.45 0.45 0.44 0.42 0.40 0.39 0.43 0.50 0.76 1.00 0.77 0.50 0.27 0.38 0.39 0.42 0.52 0.27 0.22 0.23 0.23